Location: Franzen
(48.6167°N, 15.3833°E)
Time: 09:06:41
(UTC+00:00)

Altair - Pass Details

Date: 07 August 2021
Orbit: 1501 x 1682 km, 47.2° (Epoch: 20 September)

Event Time Altitude Azimuth Distance (km) Brightness Sun altitude
Rises 05:39:27 0° 289° (WNW) 4,666 9.5 17.9°
Reaches altitude 10° 05:42:52 10° 281° (W) 3,668 9.0 18.5°
Maximum altitude 05:50:38 32° 222° (SW) 2,346 8.3 19.8°
Drops below altitude 10° 05:58:24 10° 164° (SSE) 3,656 9.8 21.1°
Sets 06:01:49 0° 155° (SSE) 4,648 10.4 21.6°
